When you browse on this site, cookies collect data to enhance your experience and personalize the content and advertising you see.
Visit our Privacy Policy to learn more. By continuing to use the site, you agree to this use of cookies and data.
  • în România
  • Lista ţărilor
  • Pe 7 zile
  • Temperatura apei
  • Hartă satelitară
  • Meteo pe hartă
  • Widget-uri
  • user-avatar
    Intrare

    Meteo pe oră la Aromatne

    Astăzi, 25 Aprilie, Joi

    Timp Temperatura Precipitaţii Vânt Presiune Umiditate
    00:00 +9°C° 0 mm 1 m/s 757 mmHg 81%
    01:00 +9°C° 0 mm 1 m/s 756 mmHg 80%
    02:00 +9°C° 0 mm 1 m/s 756 mmHg 79%
    03:00 +9°C° 0 mm 1 m/s 756 mmHg 75%
    04:00 +9°C° 0 mm 1 m/s 756 mmHg 72%
    05:00 +9°C° 0 mm 1 m/s 756 mmHg 68%
    06:00 +11°C° 0 mm 1 m/s 757 mmHg 60%
    07:00 +13°C° 0 mm 1 m/s 757 mmHg 51%
    08:00 +15°C° 0 mm 1 m/s 757 mmHg 43%
    09:00 +16°C° 0 mm 1 m/s 757 mmHg 40%
    10:00 +18°C° 0 mm 2 m/s 757 mmHg 38%
    11:00 +19°C° 0 mm 2 m/s 757 mmHg 35%
    12:00 +19°C° 0 mm 2 m/s 757 mmHg 36%
    13:00 +19°C° 0 mm 2 m/s 757 mmHg 38%
    14:00 +19°C° 0 mm 3 m/s 756 mmHg 39%
    15:00 +19°C° 0 mm 2 m/s 756 mmHg 43%
    16:00 +18°C° 0 mm 2 m/s 756 mmHg 46%
    17:00 +17°C° 0 mm 2 m/s 755 mmHg 50%
    18:00 +15°C° 0 mm 1 m/s 755 mmHg 56%
    19:00 +13°C° 0 mm 1 m/s 755 mmHg 61%
    20:00 +12°C° 0 mm 1 m/s 755 mmHg 67%
    21:00 +12°C° 0 mm 1 m/s 755 mmHg 66%
    22:00 +11°C° 0 mm 1 m/s 755 mmHg 66%
    23:00 +11°C° 0 mm 1 m/s 754 mmHg 65%

    Mâine, 26 Aprilie, Vineri

    Timp Temperatura Precipitaţii Vânt Presiune Umiditate
    00:00 +11°C° 0 mm 1 m/s 754 mmHg 64%
    01:00 +11°C° 0 mm 1 m/s 754 mmHg 63%
    02:00 +11°C° 0 mm 1 m/s 754 mmHg 62%
    03:00 +11°C° 0 mm 1 m/s 754 mmHg 62%
    04:00 +10°C° 0 mm 1 m/s 753 mmHg 62%
    05:00 +10°C° 0 mm 1 m/s 753 mmHg 61%
    06:00 +12°C° 0 mm 1 m/s 753 mmHg 57%
    07:00 +15°C° 0 mm 1 m/s 753 mmHg 53%
    08:00 +18°C° 0 mm 1 m/s 754 mmHg 48%
    09:00 +19°C° 0 mm 1 m/s 753 mmHg 46%
    10:00 +20°C° 0 mm 1 m/s 753 mmHg 44%
    11:00 +22°C° 0 mm 1 m/s 753 mmHg 42%
    12:00 +21°C° 0 mm 2 m/s 753 mmHg 42%
    13:00 +21°C° 0 mm 2 m/s 753 mmHg 42%
    14:00 +21°C° 0 mm 2 m/s 752 mmHg 42%
    15:00 +20°C° 0 mm 2 m/s 752 mmHg 46%
    16:00 +19°C° 0 mm 2 m/s 752 mmHg 51%
    17:00 +18°C° 0 mm 3 m/s 751 mmHg 56%
    18:00 +16°C° 0 mm 2 m/s 751 mmHg 61%
    19:00 +14°C° 0 mm 2 m/s 751 mmHg 65%
    20:00 +13°C° 0 mm 1 m/s 751 mmHg 70%
    21:00 +13°C° 0 mm 1 m/s 751 mmHg 70%
    22:00 +12°C° 0 mm 1 m/s 751 mmHg 70%
    23:00 +12°C° 0 mm 1 m/s 751 mmHg 70%

    Poimâine, 27 Aprilie, Sâmbătă

    Timp Temperatura Precipitaţii Vânt Presiune Umiditate
    00:00 +12°C° 0 mm 1 m/s 751 mmHg 71%
    01:00 +12°C° 0 mm 1 m/s 750 mmHg 72%
    02:00 +12°C° 0 mm 1 m/s 750 mmHg 74%
    03:00 +11°C° 0 mm 1 m/s 750 mmHg 75%
    04:00 +11°C° 0 mm 1 m/s 750 mmHg 76%
    05:00 +11°C° 0 mm 1 m/s 750 mmHg 76%
    06:00 +13°C° 0 mm 1 m/s 750 mmHg 70%
    07:00 +16°C° 0 mm 1 m/s 750 mmHg 63%
    08:00 +19°C° 0 mm 1 m/s 750 mmHg 57%
    09:00 +20°C° 0 mm 1 m/s 750 mmHg 53%
    10:00 +21°C° 0 mm 1 m/s 750 mmHg 49%
    11:00 +23°C° 0 mm 1 m/s 750 mmHg 45%
    12:00 +23°C° 0 mm 2 m/s 749 mmHg 46%
    13:00 +21°C° 0 mm 2 m/s 749 mmHg 47%
    14:00 +21°C° 0 mm 3 m/s 748 mmHg 48%
    15:00 +20°C° 0 mm 2 m/s 748 mmHg 52%
    16:00 +19°C° 0 mm 2 m/s 748 mmHg 56%
    17:00 +18°C° 0 mm 2 m/s 747 mmHg 60%
    18:00 +18°C° 0 mm 1 m/s 747 mmHg 66%
    19:00 +15°C° 0 mm 1 m/s 747 mmHg 71%
    20:00 +12°C° 0 mm 0 m/s 747 mmHg 77%
    21:00 +13°C° 0 mm 1 m/s 747 mmHg 77%
    22:00 +13°C° 0 mm 1 m/s 746 mmHg 78%
    23:00 +13°C° 0 mm 1 m/s 746 mmHg 78%

    28 Aprilie, Duminică

    Timp Temperatura Precipitaţii Vânt Presiune Umiditate
    00:00 +12°C° 0 mm 1 m/s 746 mmHg 79%
    01:00 +12°C° 0 mm 1 m/s 746 mmHg 79%
    02:00 +12°C° 0 mm 1 m/s 745 mmHg 80%
    03:00 +12°C° 0 mm 1 m/s 745 mmHg 79%
    04:00 +12°C° 0 mm 1 m/s 745 mmHg 78%
    05:00 +12°C° 0 mm 1 m/s 745 mmHg 77%
    06:00 +14°C° 0 mm 1 m/s 745 mmHg 69%
    07:00 +16°C° 0 mm 1 m/s 745 mmHg 60%
    08:00 +19°C° 0 mm 1 m/s 746 mmHg 51%
    09:00 +20°C° 0 mm 1 m/s 746 mmHg 48%
    10:00 +21°C° 0 mm 1 m/s 746 mmHg 45%
    11:00 +21°C° 0 mm 2 m/s 746 mmHg 41%
    12:00 +21°C° 0 mm 2 m/s 746 mmHg 43%
    13:00 +21°C° 0 mm 2 m/s 746 mmHg 44%
    14:00 +21°C° 0 mm 2 m/s 746 mmHg 46%
    15:00 +20°C° 0 mm 2 m/s 745 mmHg 50%
    16:00 +19°C° 0 mm 2 m/s 745 mmHg 55%
    17:00 +18°C° 0 mm 2 m/s 745 mmHg 60%
    18:00 +16°C° 0 mm 1 m/s 745 mmHg 65%
    19:00 +15°C° 0 mm 1 m/s 745 mmHg 70%
    20:00 +13°C° 0 mm 1 m/s 745 mmHg 75%
    21:00 +13°C° 0 mm 1 m/s 745 mmHg 74%
    22:00 +13°C° 0 mm 1 m/s 745 mmHg 74%
    23:00 +13°C° 0 mm 1 m/s 745 mmHg 74%

    29 Aprilie, Luni

    Timp Temperatura Precipitaţii Vânt Presiune Umiditate
    00:00 +12°C° 0 mm 1 m/s 745 mmHg 74%
    01:00 +12°C° 0 mm 1 m/s 745 mmHg 74%
    02:00 +11°C° 0 mm 0 m/s 745 mmHg 74%
    03:00 +12°C° 0 mm 1 m/s 745 mmHg 73%
    04:00 +12°C° 0 mm 1 m/s 745 mmHg 71%
    05:00 +12°C° 0 mm 1 m/s 745 mmHg 70%
    06:00 +14°C° 0 mm 1 m/s 745 mmHg 63%
    07:00 +16°C° 0 mm 1 m/s 745 mmHg 55%
    08:00 +20°C° 0 mm 1 m/s 745 mmHg 48%
    09:00 +21°C° 0 mm 1 m/s 745 mmHg 47%
    10:00 +21°C° 0 mm 2 m/s 745 mmHg 46%
    11:00 +23°C° 0 mm 2 m/s 745 mmHg 45%
    12:00 +23°C° 0 mm 2 m/s 745 mmHg 45%
    13:00 +22°C° 0 mm 3 m/s 745 mmHg 46%
    14:00 +22°C° 0 mm 3 m/s 745 mmHg 46%
    15:00 +21°C° 0 mm 2 m/s 745 mmHg 50%
    16:00 +20°C° 0 mm 2 m/s 744 mmHg 53%
    17:00 +19°C° 0 mm 2 m/s 744 mmHg 56%
    18:00 +19°C° 0 mm 1 m/s 744 mmHg 62%
    19:00 +16°C° 0 mm 1 m/s 744 mmHg 68%
    20:00 +14°C° 0 mm 1 m/s 744 mmHg 74%
    21:00 +14°C° 0 mm 1 m/s 744 mmHg 73%
    22:00 +14°C° 0 mm 1 m/s 743 mmHg 73%
    23:00 +14°C° 0 mm 2 m/s 743 mmHg 72%

    30 Aprilie, Marţi

    Timp Temperatura Precipitaţii Vânt Presiune Umiditate
    00:00 +14°C° 0 mm 2 m/s 743 mmHg 70%
    01:00 +14°C° 0 mm 2 m/s 743 mmHg 68%
    02:00 +14°C° 0 mm 2 m/s 743 mmHg 66%
    03:00 +14°C° 0 mm 2 m/s 743 mmHg 66%
    04:00 +14°C° 0 mm 2 m/s 742 mmHg 66%
    05:00 +14°C° 0 mm 2 m/s 742 mmHg 66%
    06:00 +16°C° 0 mm 2 m/s 742 mmHg 63%
    07:00 +17°C° 0 mm 2 m/s 742 mmHg 60%
    08:00 +19°C° 0 mm 2 m/s 742 mmHg 56%
    09:00 +20°C° 0.1 mm 3 m/s 743 mmHg 54%
    10:00 +21°C° 0.1 mm 3 m/s 743 mmHg 51%
    11:00 +22°C° 0.1 mm 3 m/s 743 mmHg 48%
    12:00 +22°C° 0.2 mm 3 m/s 742 mmHg 50%
    13:00 +22°C° 0.2 mm 3 m/s 742 mmHg 51%
    14:00 +21°C° 0.2 mm 3 m/s 742 mmHg 53%
    15:00 +21°C° 0 mm 3 m/s 742 mmHg 56%
    16:00 +20°C° 0 mm 2 m/s 742 mmHg 59%
    17:00 +20°C° 0 mm 2 m/s 742 mmHg 61%
    18:00 +18°C° 0 mm 2 m/s 742 mmHg 67%
    19:00 +17°C° 0 mm 2 m/s 742 mmHg 73%
    20:00 +15°C° 0 mm 2 m/s 742 mmHg 78%
    21:00 +14°C° 0 mm 2 m/s 741 mmHg 79%
    22:00 +14°C° 0 mm 2 m/s 741 mmHg 80%
    23:00 +14°C° 0 mm 2 m/s 741 mmHg 81%
    Arată mai mult